Regional Weather Roundup
Issued by NWS

Home | Current Version | Previous Version | Graphics & Text | Print | Product List | Glossary On
Versions: 1 2 3 4 5 6 7 8 9 10 11 12 13 14 15 16 17 18 19 20 21 22 23 24 25 26 27 28 29 30 31 32 33 34 35 36 37 38 39 40 41 42 43 44 45 46 47 48 49 50
813
ASUS44 KMEG 131600
RWRTN
TENNESSEE HOURLY STATE WEATHER ROUNDUP
NATIONAL WEATHER SERVICE MEMPHIS TN
1000 AM CST WED DEC 13 2017

TNZ002-004-019-021-049-052-054-088>092-131700-
WEST TENNESSEE

CITY           SKY/WX    TMP DP  RH WIND       PRES   REMARKS
MEMPHIS INTL   SUNNY     45  22  40 S17G33    29.98F
NWS MEMPHIS      N/A     42 N/A N/A MISG        N/A
JACKSON        SUNNY     44  21  40 S14       29.96F
DYERSBURG      SUNNY     43  20  39 S16G23    29.92F
$$

TNZ008-025-027-028-033-062-065-066-131700-
NORTH MIDDLE TENNESSEE

CITY           SKY/WX    TMP DP  RH WIND       PRES   REMARKS
NASHVILLE      MOSUNNY   39  11  31 S15       29.97F WCI  31
CLARKSVILLE    SUNNY     38  13  35 SW14      29.92F WCI  30
SMYRNA         SUNNY     38  11  32 S13       29.99F WCI  30
CROSSVILLE     SUNNY     32   4  30 S8        29.94F WCI  25
$$

TNZ061-075-076-078-094-096-097-131700-
SOUTH MIDDLE TENNESSEE

CITY           SKY/WX    TMP DP  RH WIND       PRES   REMARKS
WINCHESTER     SUNNY     37  10  32 VRB3      30.02F
$$

TNZ017-018-042-046-047-131700-
NORTHEAST TENNESSEE

CITY           SKY/WX    TMP DP  RH WIND       PRES   REMARKS
TRI CITIES     MOSUNNY   29   6  38 SW8       29.96F WCI  21
$$

TNZ012-013-036-069-073-074-131700-
CENTRAL EAST TENNESSEE

CITY           SKY/WX    TMP DP  RH WIND       PRES   REMARKS
KNOXVILLE      MOSUNNY   35  13  40 SW7       30.00F WCI  29
OAK RIDGE      SUNNY     32   8  36 VRB6      30.01F WCI  26
$$

TNZ083-085-099-131700-
SOUTHEAST TENNESSEE

CITY           SKY/WX    TMP DP  RH WIND       PRES   REMARKS
CHATTANOOGA    SUNNY     35   8  32 VRB3      30.06F
$$

SKY/WX REPORTED AS FAIR MEANS FEW OR NO CLOUDS BELOW
12 THOUSAND FEET.





USA.gov is the U.S. government's official web portal to all federal, state and local government web resources and services.